Location: Foligno
(42.9600°N, 12.7050°E)
Time: 11:21:57
(UTC+02:00)

ISS - Pass Details

Date: 10 May 2021
Orbit: 417 x 422 km, 51.6° (Epoch: 15 May)

Event Time Altitude Azimuth Distance (km) Brightness Sun altitude
Rises 04:24:01 0° 303° (WNW) 2,370 -0.1 -14.2°
Reaches altitude 10° 04:26:25 10° 319° (NW) 1,505 -0.9 -13.9°
Maximum altitude 04:29:11 23° 14° (NNE) 948 -1.3 -13.5°
Drops below altitude 10° 04:31:57 10° 69° (ENE) 1,504 0.3 -13.1°
Sets 04:34:20 0° 85° (E) 2,368 1.1 -12.8°
